• In Netherlands
  • List of Countries
  • For 7 days
  • Water Temperature
  • Satellite Maps
  • Weather Map
  • Weather Widgets
  • user-avatar
    Login

    Hourly Weather Igls

    Today, 27 June, Tuesday

    Time Temperature Precipitation Wind Pressure Humidity
    00:00 +18°C° 1.2 mm 1 mps 683 mmHg 94%
    01:00 +17°C° 0 mm 2 mps 683 mmHg 95%
    02:00 +17°C° 0.7 mm 2 mps 683 mmHg 96%
    03:00 +16°C° 0.7 mm 1 mps 683 mmHg 96%
    04:00 +16°C° 0.7 mm 1 mps 682 mmHg 97%
    05:00 +18°C° 0.4 mm 1 mps 683 mmHg 95%
    06:00 +19°C° 0.4 mm 1 mps 683 mmHg 93%
    07:00 +19°C° 0.4 mm 1 mps 683 mmHg 92%
    08:00 +21°C° 0.3 mm 1 mps 683 mmHg 84%
    09:00 +23°C° 0.3 mm 1 mps 683 mmHg 76%
    10:00 +24°C° 0.3 mm 1 mps 683 mmHg 67%
    11:00 +25°C° 1.1 mm 2 mps 683 mmHg 69%
    12:00 +25°C° 1.1 mm 2 mps 682 mmHg 70%
    13:00 +24°C° 0 mm 2 mps 682 mmHg 70%
    14:00 +24°C° 0.8 mm 2 mps 682 mmHg 70%
    15:00 +24°C° 0.8 mm 2 mps 682 mmHg 70%
    16:00 +25°C° 0.8 mm 2 mps 682 mmHg 70%
    17:00 +24°C° 0.5 mm 2 mps 681 mmHg 75%
    18:00 +23°C° 0.5 mm 1 mps 681 mmHg 79%
    19:00 +22°C° 0.5 mm 1 mps 680 mmHg 84%
    20:00 +21°C° 0.1 mm 1 mps 680 mmHg 87%
    21:00 +18°C° 0.1 mm 2 mps 680 mmHg 91%
    22:00 +17°C° 0.1 mm 2 mps 679 mmHg 94%
    23:00 +16°C° 0 mm 2 mps 679 mmHg 94%

    Tomorrow, 28 June, Wednesday

    Time Temperature Precipitation Wind Pressure Humidity
    00:00 +16°C° 0 mm 2 mps 679 mmHg 94%
    01:00 +16°C° 0 mm 2 mps 679 mmHg 94%
    02:00 +16°C° 0 mm 2 mps 678 mmHg 93%
    03:00 +16°C° 0 mm 2 mps 678 mmHg 93%
    04:00 +16°C° 0 mm 2 mps 677 mmHg 92%
    05:00 +17°C° 0.1 mm 2 mps 677 mmHg 90%
    06:00 +18°C° 0.1 mm 2 mps 677 mmHg 88%
    07:00 +19°C° 0.1 mm 2 mps 678 mmHg 85%
    08:00 +20°C° 0.5 mm 2 mps 678 mmHg 82%
    09:00 +21°C° 0.5 mm 2 mps 678 mmHg 79%
    10:00 +21°C° 0.5 mm 2 mps 678 mmHg 76%
    11:00 +23°C° 1 mm 2 mps 678 mmHg 75%
    12:00 +23°C° 1 mm 2 mps 677 mmHg 74%
    13:00 +22°C° 1 mm 3 mps 677 mmHg 72%
    14:00 +23°C° 1.2 mm 2 mps 677 mmHg 73%
    15:00 +23°C° 1.2 mm 2 mps 676 mmHg 74%
    16:00 +23°C° 1.2 mm 2 mps 676 mmHg 75%
    17:00 +20°C° 1.5 mm 2 mps 675 mmHg 82%
    18:00 +19°C° 1.5 mm 2 mps 675 mmHg 88%
    19:00 +19°C° 1.5 mm 1 mps 674 mmHg 95%
    20:00 +18°C° 2.3 mm 1 mps 674 mmHg 96%
    21:00 +16°C° 2.3 mm 1 mps 674 mmHg 96%
    22:00 +15°C° 2.3 mm 1 mps 673 mmHg 97%
    23:00 +15°C° 1.1 mm 1 mps 673 mmHg 97%

    Day after tomorrow, 29 June, Thursday

    Time Temperature Precipitation Wind Pressure Humidity
    00:00 +15°C° 1.1 mm 1 mps 673 mmHg 97%
    01:00 +14°C° 1.1 mm 1 mps 672 mmHg 97%
    02:00 +14°C° 1 mm 1 mps 672 mmHg 97%
    03:00 +14°C° 1 mm 1 mps 672 mmHg 98%
    04:00 +13°C° 1 mm 1 mps 672 mmHg 98%
    05:00 +14°C° 0.8 mm 1 mps 673 mmHg 97%
    06:00 +15°C° 0.8 mm 1 mps 673 mmHg 95%
    07:00 +15°C° 0.8 mm 1 mps 673 mmHg 94%
    08:00 +16°C° 1 mm 1 mps 674 mmHg 93%
    09:00 +16°C° 1 mm 1 mps 674 mmHg 91%
    10:00 +16°C° 1 mm 1 mps 675 mmHg 89%
    11:00 +18°C° 1 mm 1 mps 675 mmHg 86%
    12:00 +18°C° 1 mm 1 mps 675 mmHg 83%
    13:00 +19°C° 1 mm 1 mps 675 mmHg 80%
    14:00 +19°C° 0.8 mm 1 mps 675 mmHg 80%
    15:00 +19°C° 0.8 mm 1 mps 675 mmHg 80%
    16:00 +19°C° 0.8 mm 1 mps 675 mmHg 80%
    17:00 +18°C° 1 mm 1 mps 676 mmHg 85%
    18:00 +16°C° 1 mm 1 mps 676 mmHg 89%
    19:00 +15°C° 1 mm 1 mps 676 mmHg 93%
    20:00 +14°C° 1.6 mm 1 mps 676 mmHg 94%
    21:00 +13°C° 1.6 mm 1 mps 677 mmHg 96%
    22:00 +13°C° 1.6 mm 1 mps 677 mmHg 97%
    23:00 +12°C° 0.7 mm 1 mps 677 mmHg 97%

    30 June, Friday

    Time Temperature Precipitation Wind Pressure Humidity
    00:00 +12°C° 0.7 mm 1 mps 677 mmHg 97%
    01:00 +11°C° 0.7 mm 1 mps 677 mmHg 96%
    02:00 +11°C° 1 mm 1 mps 677 mmHg 96%
    03:00 +11°C° 1 mm 1 mps 677 mmHg 96%
    04:00 +11°C° 1 mm 1 mps 678 mmHg 96%
    05:00 +11°C° 0.4 mm 1 mps 678 mmHg 95%
    06:00 +12°C° 0.4 mm 1 mps 678 mmHg 94%
    07:00 +13°C° 0.4 mm 1 mps 679 mmHg 93%
    08:00 +14°C° 0.2 mm 1 mps 679 mmHg 87%
    09:00 +15°C° 0.2 mm 1 mps 680 mmHg 80%
    10:00 +16°C° 0.2 mm 2 mps 680 mmHg 74%
    11:00 +17°C° 0.5 mm 2 mps 680 mmHg 72%
    12:00 +18°C° 0.5 mm 2 mps 681 mmHg 70%
    13:00 +19°C° 0.5 mm 2 mps 681 mmHg 68%
    14:00 +18°C° 1.1 mm 2 mps 681 mmHg 70%
    15:00 +18°C° 1.1 mm 2 mps 681 mmHg 73%
    16:00 +17°C° 1.1 mm 2 mps 680 mmHg 75%
    17:00 +16°C° 1 mm 2 mps 681 mmHg 80%
    18:00 +15°C° 1 mm 2 mps 681 mmHg 84%
    19:00 +14°C° 1 mm 1 mps 681 mmHg 88%
    20:00 +14°C° 0.7 mm 1 mps 681 mmHg 91%
    21:00 +13°C° 0.7 mm 1 mps 681 mmHg 93%
    22:00 +12°C° 0.7 mm 1 mps 681 mmHg 96%
    23:00 +11°C° 0.2 mm 1 mps 681 mmHg 95%

    1 July, Saturday

    Time Temperature Precipitation Wind Pressure Humidity
    00:00 +10°C° 0.2 mm 1 mps 681 mmHg 95%
    01:00 +9°C° 0.2 mm 1 mps 680 mmHg 94%
    02:00 +9°C° 0 mm 1 mps 680 mmHg 94%
    03:00 +9°C° 0 mm 1 mps 680 mmHg 93%
    04:00 +9°C° 0 mm 1 mps 680 mmHg 92%
    05:00 +11°C° 0 mm 1 mps 681 mmHg 87%
    06:00 +13°C° 0 mm 1 mps 681 mmHg 83%
    07:00 +13°C° 0 mm 0 mps 682 mmHg 78%
    08:00 +16°C° 0 mm 1 mps 682 mmHg 68%
    09:00 +19°C° 0 mm 1 mps 683 mmHg 59%
    10:00 +21°C° 0 mm 1 mps 683 mmHg 49%
    11:00 +21°C° 0.3 mm 1 mps 683 mmHg 54%
    12:00 +21°C° 0.3 mm 1 mps 683 mmHg 58%
    13:00 +21°C° 0.3 mm 1 mps 683 mmHg 63%
    14:00 +21°C° 1.2 mm 1 mps 683 mmHg 67%
    15:00 +20°C° 1.2 mm 1 mps 682 mmHg 71%
    16:00 +19°C° 1.2 mm 1 mps 682 mmHg 76%
    17:00 +18°C° 1.3 mm 1 mps 682 mmHg 81%
    18:00 +16°C° 1.3 mm 1 mps 683 mmHg 87%
    19:00 +15°C° 1.3 mm 1 mps 683 mmHg 93%
    20:00 +14°C° 0.4 mm 1 mps 683 mmHg 94%
    21:00 +13°C° 0.4 mm 1 mps 683 mmHg 95%
    22:00 +12°C° 0.4 mm 1 mps 683 mmHg 97%
    23:00 +11°C° 0 mm 1 mps 683 mmHg 97%

    2 July, Sunday

    Time Temperature Precipitation Wind Pressure Humidity
    00:00 +11°C° 0 mm 1 mps 683 mmHg 97%
    01:00 +11°C° 0 mm 1 mps 683 mmHg 97%
    02:00 +11°C° 0.1 mm 1 mps 683 mmHg 97%
    03:00 +11°C° 0.1 mm 1 mps 684 mmHg 97%
    04:00 +11°C° 0.1 mm 1 mps 684 mmHg 96%
    05:00 +11°C° 0.8 mm 1 mps 684 mmHg 96%
    06:00 +12°C° 0.8 mm 1 mps 685 mmHg 96%
    07:00 +12°C° 0.8 mm 1 mps 685 mmHg 95%
    08:00 +13°C° 0.3 mm 1 mps 685 mmHg 92%
    09:00 +13°C° 0.3 mm 1 mps 686 mmHg 90%
    10:00 +14°C° 0.3 mm 1 mps 686 mmHg 87%
    11:00 +15°C° 0.1 mm 1 mps 686 mmHg 81%
    12:00 +17°C° 0.1 mm 2 mps 686 mmHg 74%
    13:00 +18°C° 0.1 mm 2 mps 686 mmHg 68%
    14:00 +18°C° 0.1 mm 2 mps 686 mmHg 67%
    15:00 +18°C° 0.1 mm 2 mps 686 mmHg 67%
    16:00 +19°C° 0.1 mm 2 mps 685 mmHg 66%
    17:00 +18°C° 0.1 mm 2 mps 686 mmHg 72%
    18:00 +17°C° 0.1 mm 2 mps 686 mmHg 78%
    19:00 +16°C° 0.1 mm 1 mps 686 mmHg 84%
    20:00 +15°C° 0.2 mm 1 mps 686 mmHg 87%
    21:00 +14°C° 0.2 mm 1 mps 686 mmHg 90%
    22:00 +14°C° 0.2 mm 1 mps 686 mmHg 94%
    23:00 +13°C° 0.4 mm 1 mps 686 mmHg 94%
    Show more